STARLINK-1734 (46325 NORAD) Tracking and Keplerian Element Data

This shows tracking and keplerian element data for the satellite.

Feedback or suggestion? Click here.




ElementValue
Catalog46325
NameSTARLINK-1734
Epoch Orbit178
Epoch Day267.58334491
Epoch Year2020
RAAN326.5987
Inclination52.9943
Eccentricity0.0003918
Argument of Perigee272.4919
Mean Anonmoly315.4253
Mean Motion15.97962228
Decay Rate-0.00552124
L11 46325U 20062A 20267.58334491 -.00552124 11291-3 -11701-2 0 9994
L22 46325 52.9943 326.5987 0003918 272.4919 315.4253 15.97962228 1789

Live tracking and technical data element details for STARLINK-1734 (NORAD 46325). STARLINK-1734 can be tracked NOW for your location showing map with azimuth and elevation plus other details from your city location.

Track the satellite on the map from your city or location and see movement details for azimuth, elevation, latitude, longitude, range, height, and movement on the map or in text.







IsCatalogInMostPopularTable: catalog: 46325, numindb: 4
Update: records affected: 1



GetName: 46325 STARLINK-1734

Hit Count: updated at: Thu, 24 Sep 2020 16:58:25 GMT